Regional Weather Roundup
Issued by NWS

Home | Current Version | Previous Version | Graphics & Text | Print | Product List | Glossary On
Versions: 1 2 3 4 5 6 7 8 9 10 11 12 13 14 15 16 17 18 19 20 21 22 23 24 25 26 27 28 29 30 31 32 33 34 35 36 37 38 39 40 41 42 43 44 45 46 47 48 49 50
000
ASUS43 KDMX 031201
RWRIA

WEATHER ROUNDUP FOR IOWA
NATIONAL WEATHER SERVICE DES MOINES IA
600 AM CST SAT DEC 03 2016

NOTE: "FAIR" INDICATES FEW OR NO CLOUDS BELOW 12,000 FEET WITH NO
SIGNIFICANT WEATHER AND/OR OBSTRUCTIONS TO VISIBILITY.

* - THESE STATIONS ARE NOT NWS STATIONS...THUS NOT UNDER NWS
QUALITY CONTROL.  THEY ALSO DO NOT REPORT WEATHER SUCH
AS PRECIPITATION OR FOG.

IAZ001>003-012>014-020>022-031>034-043>046-031300-
   NORTHWEST IOWA

CITY           SKY/WX    TMP DP  RH WIND       PRES   REMARKS
CARROLL *      PTCLDY    30  30 100 CALM      30.30F
CHEROKEE *     CLOUDY    31  30  96 CALM      30.29F
DENISON *      CLEAR     27  27 100 E5        30.28F WCI  21
LE MARS *      CLEAR     28  27  93 CALM      30.28F
ORANGE CITY *  PTCLDY    28  27  93 CALM      30.27F
SHELDON *      CLOUDY    30  30 100 CALM      30.26F
SIOUX CITY     CLOUDY    25  22  88 E6        30.29F WCI  18
6HR MIN TEMP:  24; 6HR MAX TEMP:  29;

SPENCER        CLOUDY    31  27  85 W8        30.29F WCI  23
6HR MIN TEMP:  30; 6HR MAX TEMP:  31;

STORM LAKE *   CLOUDY    32  28  86 SW3       30.28F
$$

IAZ055>058-069>071-079>083-090>094-031300-
   SOUTHWEST IOWA

CITY           SKY/WX    TMP DP  RH WIND       PRES   REMARKS
ATLANTIC *     CLEAR     23  23 100 N3        30.30F
AUDUBON *      CLEAR     25  21  86 CALM      30.31F
CLARINDA *       N/A     23  23 100 N5        30.33F WCI  17
COUNCIL BLFS * CLEAR     27  27 100 SE3       30.29F
CRESTON *        N/A     27  27 100 CALM      30.32F
HARLAN  *      CLEAR     25  25 100 CALM      30.33F
LAMONI         CLEAR     24  23  96 N6        30.30F WCI  17
6HR MIN TEMP:  24; 6HR MAX TEMP:  29;

RED OAK *      MOCLDY    21  21 100 N3        30.31F
SHENANDOAH *   CLOUDY    23  23 100 NE5       30.32F WCI  17
$$

IAZ047>049-059>061-072>074-084-031300-
   CENTRAL IOWA

CITY           SKY/WX    TMP DP  RH WIND       PRES   REMARKS
AMES           CLOUDY    34  31  88 S6        30.32F WCI  29
6HR MIN TEMP:  33; 6HR MAX TEMP:  34;

ANKENY *       CLOUDY    36  32  87 SW5       30.35S WCI  32
BOONE *        CLOUDY    34  32  93 CALM      30.31S
CHARITON *       N/A     28  28 100 CALM      30.32F FOG
DES MOINES     CLOUDY    36  28  73 W3        30.34F
6HR MIN TEMP:  36; 6HR MAX TEMP:  37;

GRINNELL*      CLOUDY    32  30  92 SE3       30.34F
KNOXVILLE *    CLOUDY    34  30  86 CALM      30.33S
MARSHALLTOWN   CLOUDY    33  29  85 S6        30.32F WCI  28
6HR MIN TEMP:  32; 6HR MAX TEMP:  33;

NEWTON *       CLOUDY    32  30  93 CALM      30.33F
PELLA *        CLOUDY    34  31  89 CALM      30.35F
PERRY *        CLOUDY    33  32  96 W3        30.33S
$$

IAZ004>006-015-016-023>025-035-036-031300-
   NORTH CENTRAL IOWA

CITY           SKY/WX    TMP DP  RH WIND       PRES   REMARKS
ALGONA *       CLOUDY    32  28  86 CALM      30.30F
CLARION *      CLOUDY    32  32 100 SW6       30.31S WCI  26
ESTHERVILLE    CLOUDY    28  23  81 CALM      30.29F
6HR MIN TEMP:  28; 6HR MAX TEMP:  30;

FORT DODGE *   CLOUDY    34  27  75 CALM      30.31F
MASON CITY     CLOUDY    30  26  85 NW5       30.32F WCI  25
6HR MIN TEMP:  29; 6HR MAX TEMP:  31;

WEBSTER CITY * CLOUDY    34  34 100 SW3       30.30S
IOWA FALLS *   CLOUDY    33  30  88 S5        30.32F WCI  28
$$

IAZ007>011-017>019-026>030-037>042-050>054-066-031300-
   NORTHEAST IOWA

CITY           SKY/WX    TMP DP  RH WIND       PRES   REMARKS
CEDAR RAPIDS   CLOUDY    31  29  92 CALM      30.35F
6HR MIN TEMP:  31; 6HR MAX TEMP:  32;

CHARLES CITY * CLOUDY    30  27  86 S7        30.32S WCI  23
CLINTON *      CLOUDY    31  27  85 NW7       30.38R WCI  24
DECORAH *      CLOUDY    30  25  80 CALM      30.31S
DUBUQUE        CLOUDY    30  25  81 W9        30.35R WCI  22
6HR MIN TEMP:  29; 6HR MAX TEMP:  30;

MONTICELLO *   CLOUDY    32  25  74 NW7       30.36S WCI  26
OELWEIN *      CLOUDY    30  27  86 S3        30.34S
WATERLOO       CLOUDY    31  24  75 S3        30.33F
6HR MIN TEMP:  30; 6HR MAX TEMP:  31;

$$

IAZ064-065-067-068-078-031300-
   EAST CENTRAL IOWA

CITY           SKY/WX    TMP DP  RH WIND       PRES   REMARKS
DAVENPORT      CLOUDY    32  24  72 NW13      30.37S WCI  22
6HR MIN TEMP:  31; 6HR MAX TEMP:  32;

IOWA CITY      CLOUDY    34  24  67 N6        30.38F WCI  29
6HR MIN TEMP:  30; 6HR MAX TEMP:  34;

MUSCATINE *    CLOUDY    34  27  75 N7        30.38F WCI  28
QUAD CITIES    CLOUDY    34  23  64 NW10      30.36F WCI  26
6HR MIN TEMP:  33; 6HR MAX TEMP:  35;

$$

IAZ062-063-075>077-085>089-095>099-031300-
   SOUTHEAST IOWA

CITY           SKY/WX    TMP DP  RH WIND       PRES   REMARKS
BURLINGTON     CLOUDY    34  30  85 N6        30.36S WCI  29
6HR MIN TEMP:  34; 6HR MAX TEMP:  36;

FAIRFIELD *    CLOUDY    34  28  80 NE3       30.35F
FORT MADISON * CLOUDY    34  28  80 CALM      30.36F
KEOKUK *       CLOUDY    34  30  86 NE3       30.36R
OSKALOOSA *    CLOUDY    33  31  91 E3        30.35S
CENTERVILLE *    N/A     28  28 100 CALM      30.34S
OTTUMWA        CLOUDY    34  29  82 E5        30.34F WCI  30
6HR MIN TEMP:  34; 6HR MAX TEMP:  35;

WASHINGTON *   CLOUDY    32  30  93 S5        30.37S WCI  27
$$

ABBREVIATIONS USED IN REMARKS
   TC - TEMPERATURES IN CELSIUS
  WCI - WIND CHILL INDEX
   HX - HEAT INDEX
  VSB - VISIBILITY
$$




USA.gov is the U.S. government's official web portal to all federal, state and local government web resources and services.